Location: Unspecified
(43.8044°N, 11.0278°E)
Time: 01:14:45
(UTC+01:00)

CZ-3 Stage 3 - Visible Passes

Search period start: 06 February 2016 00:00
Search period end: 16 February 2016 00:00
Orbit: 367 x 34843 km, 30.4° (Epoch: 04 February)

Date Brightness Start Highest point End Pass type
(mag) Time Alt. Az. Time Alt. Az. Time Alt. Az.
07 Feb 8.9 21:17:19 10° WSW 21:52:56 15° SW 23:23:47 10° SSW visible
08 Feb 7.9 17:22:08 10° WSW 17:36:30 32° S 22:42:43 10° S visible
10 Feb 9.0 21:12:39 10° SW 21:46:18 14° SW 23:04:01 10° SSW visible
11 Feb 8.0 17:14:36 10° WSW 17:29:04 30° S 22:22:53 10° S visible
13 Feb 9.1 21:08:42 10° SW 21:39:37 13° SW 22:43:14 10° SSW visible
14 Feb 8.1 17:06:58 10° WSW 17:21:31 29° S 22:01:43 10° S visible
